sat.trackr.live / text

‹ back to catalog

STARLINK-3721

NORAD 52134 · 2022-029AY

PAYLOAD ACTIVE UNKNOWN

§ Identity

Operator
Country
US
Launch date
2022-03-19
Launch site
AFETR
Launch vehicle
Mass (kg)
RCS (m²)

Purposes: comms

External: N2YO · Heavens-Above · Gunter

§ Orbital elements

Epoch: 2026-09-19T17:59:21.516576Z

Period
93.85 min
Inclination
53.1603°
Eccentricity
0.0001274
Mean motion
15.34387133 rev/d
Perigee alt
461.9 km
Apogee alt
463.6 km
Semi-major
6,840.9 km
B*
-2.0647e-6
RAAN
270.9333°
Arg perigee
87.3436°
Mean anomaly
272.7712°
Rev number
25,032

§ Raw data

STARLINK-37211 52134U 22029AY  26262.74955459 -.00000446  00000+0 -20647-5 0  99952 52134  53.1603 270.9333 0001274  87.3436 272.7712 15.34387133250325

JSON: /api/v1/satellites/52134 · /tle

For live sub-satellite position, see the globe view (requires WebGL).

§ Visibility from observer

Set your observer location to see the next 7 days of passes ≥ 10°. The values pass through the URL so the page stays shareable.

No JS? Fill the form by hand. The geolocation button needs JavaScript.